• In Deutschland
  • Länderverzeichnis
  • Für 7 Tage
  • Wassertemperatur
  • Satellitenkarten
  • Wetterkarte
  • Widgets
  • user-avatar
    Anmelden

    Stündliche Wetter Pabna

    Heute, 23 Juni, Freitag

    Zeit Temperatur Niederschläge Wind Luftdruck Luftfeuchtigkeit
    00:00 +30°C° 0 mm 2 m/S 749 mmHg 79%
    01:00 +30°C° 0,1 mm 2 m/S 748 mmHg 81%
    02:00 +30°C° 0,1 mm 2 m/S 748 mmHg 82%
    03:00 +30°C° 0,1 mm 2 m/S 748 mmHg 83%
    04:00 +29°C° 0 mm 2 m/S 748 mmHg 84%
    05:00 +29°C° 0 mm 2 m/S 748 mmHg 85%
    06:00 +29°C° 0 mm 2 m/S 748 mmHg 86%
    07:00 +31°C° 0,1 mm 2 m/S 748 mmHg 80%
    08:00 +33°C° 0,1 mm 3 m/S 748 mmHg 74%
    09:00 +34°C° 0,1 mm 3 m/S 749 mmHg 68%
    10:00 +35°C° 0,3 mm 3 m/S 748 mmHg 64%
    11:00 +36°C° 0,3 mm 3 m/S 748 mmHg 60%
    12:00 +37°C° 0 mm 3 m/S 748 mmHg 59%
    13:00 +37°C° 0,3 mm 3 m/S 747 mmHg 58%
    14:00 +37°C° 0,3 mm 2 m/S 747 mmHg 57%
    15:00 +37°C° 0,3 mm 2 m/S 746 mmHg 55%
    16:00 +37°C° 0,2 mm 2 m/S 746 mmHg 58%
    17:00 +36°C° 0,2 mm 2 m/S 746 mmHg 60%
    18:00 +35°C° 0 mm 2 m/S 746 mmHg 64%
    19:00 +34°C° 0 mm 2 m/S 746 mmHg 67%
    20:00 +32°C° 0 mm 2 m/S 746 mmHg 69%
    21:00 +32°C° 0 mm 2 m/S 747 mmHg 72%
    22:00 +31°C° 0 mm 2 m/S 747 mmHg 74%
    23:00 +31°C° 0 mm 2 m/S 747 mmHg 76%

    Morgen, 24 Juni, Samstag

    Zeit Temperatur Niederschläge Wind Luftdruck Luftfeuchtigkeit
    00:00 +30°C° 0 mm 2 m/S 747 mmHg 78%
    01:00 +30°C° 0 mm 2 m/S 747 mmHg 79%
    02:00 +30°C° 0 mm 2 m/S 747 mmHg 81%
    03:00 +29°C° 0 mm 2 m/S 747 mmHg 83%
    04:00 +29°C° 0 mm 2 m/S 747 mmHg 84%
    05:00 +29°C° 0 mm 2 m/S 747 mmHg 85%
    06:00 +29°C° 0 mm 2 m/S 747 mmHg 86%
    07:00 +30°C° 0 mm 3 m/S 747 mmHg 80%
    08:00 +33°C° 0 mm 3 m/S 747 mmHg 74%
    09:00 +34°C° 0 mm 4 m/S 748 mmHg 68%
    10:00 +35°C° 0,1 mm 4 m/S 747 mmHg 64%
    11:00 +36°C° 0,1 mm 4 m/S 747 mmHg 61%
    12:00 +37°C° 0,1 mm 4 m/S 747 mmHg 57%
    13:00 +37°C° 0,3 mm 4 m/S 746 mmHg 57%
    14:00 +37°C° 0,3 mm 4 m/S 746 mmHg 57%
    15:00 +37°C° 0,3 mm 4 m/S 745 mmHg 58%
    16:00 +37°C° 0,3 mm 4 m/S 745 mmHg 60%
    17:00 +36°C° 0,3 mm 4 m/S 745 mmHg 63%
    18:00 +35°C° 0,3 mm 4 m/S 745 mmHg 66%
    19:00 +34°C° 0,7 mm 3 m/S 745 mmHg 70%
    20:00 +33°C° 0,7 mm 3 m/S 746 mmHg 74%
    21:00 +31°C° 0,7 mm 3 m/S 747 mmHg 78%
    22:00 +31°C° 0,1 mm 3 m/S 747 mmHg 79%
    23:00 +31°C° 0,1 mm 3 m/S 747 mmHg 81%

    übermorgen, 25 Juni, Sonntag

    Zeit Temperatur Niederschläge Wind Luftdruck Luftfeuchtigkeit
    00:00 +30°C° 0,1 mm 3 m/S 747 mmHg 82%
    01:00 +30°C° 0 mm 3 m/S 747 mmHg 83%
    02:00 +30°C° 0 mm 3 m/S 747 mmHg 84%
    03:00 +29°C° 0 mm 3 m/S 747 mmHg 85%
    04:00 +29°C° 0 mm 3 m/S 747 mmHg 85%
    05:00 +29°C° 0 mm 3 m/S 747 mmHg 86%
    06:00 +29°C° 0 mm 3 m/S 747 mmHg 86%
    07:00 +30°C° 0 mm 3 m/S 747 mmHg 80%
    08:00 +33°C° 0 mm 4 m/S 748 mmHg 73%
    09:00 +34°C° 0 mm 4 m/S 748 mmHg 67%
    10:00 +35°C° 0,1 mm 4 m/S 748 mmHg 63%
    11:00 +36°C° 0,1 mm 4 m/S 748 mmHg 59%
    12:00 +37°C° 0,1 mm 4 m/S 748 mmHg 55%
    13:00 +37°C° 0,2 mm 4 m/S 747 mmHg 54%
    14:00 +38°C° 0,2 mm 4 m/S 746 mmHg 53%
    15:00 +38°C° 0,2 mm 4 m/S 745 mmHg 52%
    16:00 +37°C° 0,4 mm 4 m/S 745 mmHg 56%
    17:00 +36°C° 0,4 mm 4 m/S 745 mmHg 61%
    18:00 +36°C° 0,4 mm 4 m/S 745 mmHg 65%
    19:00 +35°C° 0,2 mm 4 m/S 746 mmHg 69%
    20:00 +33°C° 0,2 mm 4 m/S 747 mmHg 73%
    21:00 +31°C° 0,2 mm 3 m/S 748 mmHg 77%
    22:00 +31°C° 0 mm 3 m/S 748 mmHg 79%
    23:00 +31°C° 0 mm 3 m/S 748 mmHg 80%

    26 Juni, Montag

    Zeit Temperatur Niederschläge Wind Luftdruck Luftfeuchtigkeit
    00:00 +30°C° 0 mm 3 m/S 748 mmHg 82%
    01:00 +30°C° 0 mm 3 m/S 748 mmHg 83%
    02:00 +29°C° 0 mm 3 m/S 748 mmHg 85%
    03:00 +29°C° 0 mm 2 m/S 748 mmHg 86%
    04:00 +29°C° 0 mm 2 m/S 748 mmHg 87%
    05:00 +29°C° 0 mm 2 m/S 748 mmHg 87%
    06:00 +29°C° 0 mm 2 m/S 748 mmHg 88%
    07:00 +30°C° 0 mm 3 m/S 749 mmHg 82%
    08:00 +31°C° 0 mm 3 m/S 749 mmHg 76%
    09:00 +33°C° 0 mm 4 m/S 749 mmHg 70%
    10:00 +35°C° 0,1 mm 4 m/S 749 mmHg 66%
    11:00 +36°C° 0,1 mm 3 m/S 749 mmHg 61%
    12:00 +37°C° 0,1 mm 3 m/S 748 mmHg 57%
    13:00 +37°C° 0,4 mm 4 m/S 748 mmHg 57%
    14:00 +37°C° 0,4 mm 4 m/S 747 mmHg 57%
    15:00 +37°C° 0,4 mm 4 m/S 746 mmHg 57%
    16:00 +37°C° 0,1 mm 3 m/S 746 mmHg 60%
    17:00 +36°C° 0,1 mm 3 m/S 746 mmHg 63%
    18:00 +36°C° 0,1 mm 3 m/S 746 mmHg 66%
    19:00 +35°C° 0 mm 3 m/S 747 mmHg 69%
    20:00 +34°C° 0 mm 3 m/S 747 mmHg 72%
    21:00 +33°C° 0 mm 3 m/S 748 mmHg 76%
    22:00 +33°C° 0,1 mm 3 m/S 748 mmHg 77%
    23:00 +31°C° 0,1 mm 3 m/S 748 mmHg 78%

    27 Juni, Dienstag

    Zeit Temperatur Niederschläge Wind Luftdruck Luftfeuchtigkeit
    00:00 +31°C° 0,1 mm 3 m/S 749 mmHg 79%
    01:00 +30°C° 0 mm 3 m/S 748 mmHg 80%
    02:00 +30°C° 0 mm 3 m/S 748 mmHg 80%
    03:00 +30°C° 0 mm 2 m/S 748 mmHg 81%
    04:00 +30°C° 0 mm 2 m/S 748 mmHg 82%
    05:00 +29°C° 0 mm 2 m/S 748 mmHg 83%
    06:00 +29°C° 0 mm 2 m/S 748 mmHg 83%
    07:00 +30°C° 0 mm 3 m/S 749 mmHg 78%
    08:00 +33°C° 0 mm 4 m/S 749 mmHg 73%
    09:00 +34°C° 0 mm 4 m/S 750 mmHg 68%
    10:00 +35°C° 0 mm 5 m/S 749 mmHg 64%
    11:00 +36°C° 0 mm 5 m/S 749 mmHg 60%
    12:00 +37°C° 0 mm 5 m/S 749 mmHg 56%
    13:00 +37°C° 0,1 mm 5 m/S 748 mmHg 56%
    14:00 +37°C° 0,1 mm 5 m/S 748 mmHg 56%
    15:00 +37°C° 0,1 mm 5 m/S 747 mmHg 57%
    16:00 +36°C° 0,2 mm 5 m/S 747 mmHg 60%
    17:00 +36°C° 0,2 mm 5 m/S 747 mmHg 63%
    18:00 +35°C° 0,2 mm 5 m/S 747 mmHg 66%
    19:00 +34°C° 0 mm 5 m/S 748 mmHg 69%
    20:00 +33°C° 0 mm 5 m/S 748 mmHg 73%
    21:00 +32°C° 0 mm 4 m/S 749 mmHg 76%
    22:00 +32°C° 0 mm 4 m/S 749 mmHg 77%
    23:00 +30°C° 0 mm 4 m/S 749 mmHg 79%

    28 Juni, Mittwoch

    Zeit Temperatur Niederschläge Wind Luftdruck Luftfeuchtigkeit
    00:00 +30°C° 0 mm 4 m/S 749 mmHg 80%
    01:00 +30°C° 0 mm 4 m/S 749 mmHg 81%
    02:00 +29°C° 0 mm 3 m/S 749 mmHg 82%
    03:00 +29°C° 0 mm 3 m/S 749 mmHg 83%
    04:00 +29°C° 0 mm 4 m/S 749 mmHg 84%
    05:00 +29°C° 0 mm 4 m/S 749 mmHg 85%
    06:00 +29°C° 0 mm 4 m/S 749 mmHg 85%
    07:00 +30°C° 0 mm 4 m/S 750 mmHg 80%
    08:00 +33°C° 0 mm 5 m/S 750 mmHg 74%
    09:00 +34°C° 0 mm 5 m/S 750 mmHg 68%
    10:00 +35°C° 0,1 mm 5 m/S 750 mmHg 64%
    11:00 +36°C° 0,1 mm 6 m/S 750 mmHg 59%
    12:00 +39°C° 0,1 mm 6 m/S 749 mmHg 54%
    13:00 +39°C° 0,2 mm 6 m/S 749 mmHg 54%
    14:00 +39°C° 0,2 mm 6 m/S 748 mmHg 54%
    15:00 +39°C° 0,2 mm 6 m/S 747 mmHg 54%
    16:00 +38°C° 0,2 mm 6 m/S 747 mmHg 57%
    17:00 +36°C° 0,2 mm 5 m/S 747 mmHg 60%
    18:00 +35°C° 0,2 mm 5 m/S 747 mmHg 63%
    19:00 +34°C° 0 mm 5 m/S 748 mmHg 67%
    20:00 +33°C° 0 mm 4 m/S 748 mmHg 70%
    21:00 +32°C° 0 mm 4 m/S 749 mmHg 73%
    22:00 +32°C° 0 mm 4 m/S 749 mmHg 75%
    23:00 +32°C° 0 mm 4 m/S 749 mmHg 76%
    Mehr zeigen